Location: Campestrin
(46.4667°N, 11.7167°E)
Time: 17:05:51
(UTC+00:00)

FALCON 9 DEB - Pass Details

Date: 18 April 2021
Orbit: 422 x 435 km, 53.0° (Epoch: 07 May)

Event Time Altitude Azimuth Distance (km) Brightness Sun altitude
Rises 19:07:56 0° 221° (SW) 2,373 7.0 -10.8°
Reaches altitude 10° 19:10:05 10° 214° (SW) 1,514 5.9 -11.1°
Maximum altitude 19:13:19 43° 142° (SE) 614 3.4 -11.6°
Drops below altitude 10° 19:16:36 10° 69° (ENE) 1,530 5.5 -12.1°
Enters shadow 19:16:54 - 68° (ENE) 1,646 5.7 -12.1°
